Back to catalog

CZ-3A DEB

LostHEO
NORAD 36971·DEBRIS·🇨🇳 China

Launched Feb 2, 2007 from Xichang Satellite Launch Center

Loading…

Next Passes (next 24 hours)

TLE

StaleSource: Space-Track

Epoch: Mar 3, 2023, 13:20 UTC

1 36971U 07003AH  23062.55562152  .00000157  00000-0  35416-2 0  9994
2 36971  25.4026 282.2295 7626740 228.7845  35.0348  1.75805539 91360

Track CZ-3A DEB in real time with AllMySat

Download on the App Store